Location: Unspecified
(0.0000°N, 0.0000°E)
Time: 16:27:27
(UTC+00:00)

A-11 Canister half - Visible Passes

Search period start: 20 January 2018 00:00
Search period end: 30 January 2018 00:00
Orbit: 1528 x 1682 km, 47.3° (Epoch: 20 January)

Date Brightness Start Highest point End Pass type
(mag) Time Alt. Az. Time Alt. Az. Time Alt. Az.
20 Jan 9.6 21:04:19 10° SSW 21:10:43 43° S 21:10:43 43° S visible
21 Jan 9.3 20:42:49 10° SSW 20:50:30 49° SSE 20:50:30 49° SSE visible
21 Jan 11.2 22:48:43 10° WSW 22:48:49 10° WSW 22:48:49 10° WSW visible
22 Jan 9.2 20:21:20 10° SSW 20:30:18 49° SE 20:30:21 49° SE visible
22 Jan 10.9 22:26:54 10° WSW 22:28:40 16° WSW 22:28:40 16° WSW visible
23 Jan 9.2 19:59:50 10° SSW 20:08:43 45° SE 20:10:15 42° ESE visible
23 Jan 10.6 22:05:08 10° WSW 22:08:35 23° W 22:08:35 23° W visible
24 Jan 9.4 19:38:22 10° SSW 19:47:07 42° SE 19:50:12 33° E visible
24 Jan 10.2 21:43:22 10° WSW 21:48:33 31° W 21:48:33 31° W visible
25 Jan 9.5 19:16:54 10° SSW 19:25:32 39° SE 19:30:13 25° E visible
25 Jan 9.8 21:21:38 10° WSW 21:28:34 39° WNW 21:28:34 39° WNW visible
26 Jan 9.6 18:55:27 10° SSW 19:03:56 37° SE 19:10:18 17° ENE visible
26 Jan 9.5 20:59:54 10° WSW 21:08:38 46° NW 21:08:38 46° NW visible
27 Jan 11.1 05:44:38 10° NNE 05:49:50 15° NE 05:55:03 10° ENE visible
27 Jan 9.7 18:34:00 10° SSW 18:42:20 34° SE 18:50:25 10° ENE visible
27 Jan 9.4 20:38:11 10° WSW 20:47:08 50° NW 20:48:45 45° NNW visible
28 Jan 11.1 05:23:37 10° NNE 05:28:09 14° NE 05:32:42 10° ENE visible
28 Jan 9.4 20:16:28 10° SW 20:25:33 53° NW 20:28:56 38° N visible
29 Jan 11.1 05:02:46 10° NNE 05:06:27 12° NE 05:10:10 10° ENE visible
29 Jan 9.3 19:54:47 10° SW 20:03:58 57° NW 20:09:08 28° NNE visible
